Flag for U.S.A. Weather past 2 weeks in Clovis, New Mexico, U.S.A.

Now
27 °F

Clear.


Feels Like: 23 °F
Forecast: 20 / 47 °F
Wind: 3 mph from Southeast

Location: Cannon Air Force Base / Clovis

Current Time: Dec 27, 2014 at 6:52:26 PM

Latest Report: Dec 27, 2014 at 5:58 PM


Visibility: 10 mi

Pressure: 30.31 "Hg

Humidity: 66%

Dew point: 17 °F

Location of ClovisLocation

Historic Weather in Clovis — Graph

°F

Clovis temperature yesterday

Maximum temperature yesterday: 39 °F (at 12:58 PM)
Minimum temperature yesterday: 25 °F (at 6:58 AM)
Average temperature yesterday: 31 °F

Past Weeks' High & Low Weather Summary

 TemperatureHumidityPressure
High69 °F (Dec 13, 12:58 PM)100% (Dec 20, 1:58 AM)30.39 "Hg (Dec 20, 1:58 AM)
Low20 °F (Dec 27, 6:58 AM)20% (Dec 15, 2:58 PM)29.56 "Hg (Dec 22, 1:58 AM)
Average39 °F60%29.96 "Hg
* Reported Dec 12 5:58 PM — Dec 27 5:58 PM, Clovis, Weather by CustomWeather, © 2014

Note: Actual official high and low records may vary slightly from our data, if they occured in-between our weather recording intervals... More about our weather records

Advertising

Clovis weather history for previous 24 hours

 ConditionsComfort  
Time TempWeatherWind HumidityBarometerVisibility
5:58 PM
Dec 27
27 °FClear.3 mph66%30.31 "Hg10 mi
4:58 PM32 °FClear.3 mph55%30.28 "Hg10 mi
3:58 PM34 °FSunny.6 mph51%30.27 "Hg10 mi
2:58 PM34 °FSunny.5 mph50%30.26 "Hg10 mi
1:58 PM33 °FSunny.5 mph50%30.27 "Hg10 mi
12:58 PM31 °FSunny.6 mph52%30.29 "Hg10 mi
11:58 AM30 °FSunny.7 mph55%30.32 "Hg10 mi
10:58 AM28 °FSunny.7 mph60%30.38 "HgN/A
9:58 AM24 °FScattered clouds.10 mph71%30.39 "HgN/A
8:58 AM22 °FSunny.8 mph79%30.38 "HgN/A
7:58 AM21 °FPassing clouds.10 mph84%30.34 "HgN/A
6:58 AM20 °FSunny.9 mph88%30.29 "Hg10 mi
5:58 AM21 °FClear.6 mph89%30.27 "Hg10 mi
4:58 AM22 °FPassing clouds.9 mph85%30.22 "Hg10 mi
3:58 AM24 °FPassing clouds.13 mph87%30.19 "Hg10 mi
2:58 AM24 °FPassing clouds.8 mph84%30.17 "Hg10 mi
1:58 AM25 °FClear.7 mph84%30.15 "Hg10 mi
12:58 AM25 °FClear.8 mph84%30.14 "Hg10 mi
11:58 PM
Dec 26
25 °FClear.5 mph84%30.14 "Hg10 mi
10:58 PM26 °FClear.12 mph83%30.11 "Hg10 mi
9:58 PM25 °FClear.13 mph86%30.10 "Hg10 mi
8:58 PM26 °FPassing clouds.10 mph88%30.12 "Hg10 mi
7:58 PM27 °FPassing clouds.7 mph87%30.13 "Hg10 mi
6:58 PM26 °FPassing clouds.8 mph89%30.11 "Hg10 mi
Weather by CustomWeather, © 2014

See weather overviewHow to use our weather pages